Wetterdaten: Mittwoch, 11.12.2013
Datum Zeit Temp. I. Temp. A. Boden 5 cm Feuchte A. Sonne Luftdruck Regen Wind Sonnenschein
11.12.2013 00:02 21,4 C 5,3 C -4,3 C 97 % 0 % 1028 hPa 0,0 l/m 7,9 km/h (2 Bft) 0 min
11.12.2013 00:05 21,4 C 5,3 C -4,3 C 97 % 0 % 1028 hPa 0,0 l/m 15,2 km/h (3 Bft) 0 min
11.12.2013 00:08 21,4 C 5,3 C -4,3 C 97 % 0 % 1028 hPa 0,0 l/m 15,2 km/h (3 Bft) 0 min
11.12.2013 00:11 21,4 C 5,3 C -4,3 C 97 % 0 % 1028 hPa 0,0 l/m 15,2 km/h (3 Bft) 0 min
11.12.2013 00:14 21,4 C 5,3 C -4,3 C 97 % 0 % 1028 hPa 0,0 l/m 9,8 km/h (2 Bft) 0 min
11.12.2013 00:17 21,4 C 5,3 C -4,3 C 97 % 0 % 1028 hPa 0,0 l/m 9,0 km/h (2 Bft) 0 min
11.12.2013 00:20 21,4 C 5,3 C -4,3 C 97 % 0 % 1028 hPa 0,0 l/m 15,1 km/h (3 Bft) 0 min
11.12.2013 00:23 21,4 C 5,3 C -4,3 C 97 % 0 % 1028 hPa 0,0 l/m 9,2 km/h (2 Bft) 0 min
11.12.2013 00:26 21,4 C 5,3 C -4,3 C 97 % 0 % 1028 hPa 0,0 l/m 5,6 km/h (1 Bft) 0 min
11.12.2013 00:29 21,4 C 5,3 C -4,3 C 97 % 0 % 1028 hPa 0,0 l/m 6,1 km/h (2 Bft) 0 min
11.12.2013 00:32 21,4 C 5,2 C -4,3 C 97 % 0 % 1028 hPa 0,0 l/m 0,9 km/h (0 Bft) 0 min
11.12.2013 00:35 21,4 C 5,2 C -4,3 C 97 % 0 % 1028 hPa 0,0 l/m 0,9 km/h (0 Bft) 0 min
11.12.2013 00:38 21,4 C 5,2 C -4,3 C 97 % 0 % 1028 hPa 0,0 l/m 7,2 km/h (2 Bft) 0 min
11.12.2013 00:41 21,4 C 5,2 C -4,3 C 97 % 0 % 1028 hPa 0,0 l/m 6,8 km/h (2 Bft) 0 min
11.12.2013 00:44 21,4 C 5,2 C -4,3 C 97 % 0 % 1028 hPa 0,0 l/m 6,4 km/h (2 Bft) 0 min
11.12.2013 00:47 21,4 C 5,2 C -4,3 C 97 % 0 % 1028 hPa 0,0 l/m 11,2 km/h (2 Bft) 0 min
11.12.2013 00:50 21,4 C 5,2 C -4,3 C 97 % 0 % 1028 hPa 0,0 l/m 8,3 km/h (2 Bft) 0 min
11.12.2013 00:53 21,4 C 5,2 C -4,3 C 97 % 0 % 1028 hPa 0,0 l/m 11,5 km/h (2 Bft) 0 min
11.12.2013 00:56 21,3 C 5,2 C -4,3 C 98 % 0 % 1028 hPa 0,0 l/m 7,3 km/h (2 Bft) 0 min
11.12.2013 00:59 21,3 C 5,2 C -4,3 C 98 % 0 % 1028 hPa 0,0 l/m 5,7 km/h (1 Bft) 0 min
11.12.2013 01:02 21,3 C 5,2 C -4,3 C 98 % 0 % 1028 hPa 0,0 l/m 9,8 km/h (2 Bft) 0 min
11.12.2013 01:05 21,3 C 5,2 C -4,3 C 98 % 0 % 1028 hPa 0,0 l/m 10,0 km/h (2 Bft) 0 min
11.12.2013 01:08 21,3 C 5,2 C -4,3 C 98 % 0 % 1028 hPa 0,0 l/m 8,5 km/h (2 Bft) 0 min
11.12.2013 01:11 21,3 C 5,2 C -4,3 C 98 % 0 % 1028 hPa 0,0 l/m 9,4 km/h (2 Bft) 0 min
11.12.2013 01:14 21,3 C 5,2 C -4,3 C 98 % 0 % 1028 hPa 0,0 l/m 9,0 km/h (2 Bft) 0 min
11.12.2013 01:17 21,3 C 5,2 C -4,3 C 98 % 0 % 1028 hPa 0,0 l/m 10,3 km/h (2 Bft) 0 min
11.12.2013 01:20 21,3 C 5,2 C -4,3 C 98 % 0 % 1028 hPa 0,0 l/m 9,7 km/h (2 Bft) 0 min
11.12.2013 01:23 21,3 C 5,2 C -4,3 C 98 % 0 % 1028 hPa 0,0 l/m 9,7 km/h (2 Bft) 0 min
11.12.2013 01:26 21,3 C 5,2 C -4,3 C 98 % 0 % 1028 hPa 0,0 l/m 4,9 km/h (1 Bft) 0 min
11.12.2013 01:29 21,3 C 5,2 C -4,3 C 98 % 0 % 1028 hPa 0,0 l/m 6,9 km/h (2 Bft) 0 min
11.12.2013 01:32 21,3 C 5,2 C -4,3 C 98 % 0 % 1028 hPa 0,0 l/m 6,1 km/h (2 Bft) 0 min
11.12.2013 01:35 21,3 C 5,2 C -4,3 C 98 % 0 % 1028 hPa 0,0 l/m 7,0 km/h (2 Bft) 0 min
11.12.2013 01:38 21,3 C 5,2 C -4,3 C 98 % 0 % 1028 hPa 0,0 l/m 6,3 km/h (2 Bft) 0 min
11.12.2013 01:41 21,3 C 5,2 C -4,3 C 98 % 0 % 1028 hPa 0,0 l/m 5,4 km/h (1 Bft) 0 min
11.12.2013 01:44 21,3 C 5,2 C -4,3 C 98 % 0 % 1028 hPa 0,0 l/m 7,3 km/h (2 Bft) 0 min
11.12.2013 01:47 21,2 C 5,2 C -4,3 C 98 % 0 % 1028 hPa 0,0 l/m 7,5 km/h (2 Bft) 0 min
11.12.2013 01:50 21,3 C 5,2 C -4,3 C 98 % 0 % 1028 hPa 0,0 l/m 4,2 km/h (1 Bft) 0 min
11.12.2013 01:53 21,3 C 5,2 C -4,3 C 98 % 0 % 1028 hPa 0,0 l/m 3,1 km/h (1 Bft) 0 min
11.12.2013 01:56 21,3 C 5,2 C -4,3 C 98 % 0 % 1028 hPa 0,0 l/m 0,0 km/h (0 Bft) 0 min
11.12.2013 01:59 21,2 C 5,2 C -4,3 C 98 % 0 % 1028 hPa 0,0 l/m 2,3 km/h (1 Bft) 0 min
11.12.2013 02:02 21,2 C 5,2 C -4,3 C 98 % 0 % 1028 hPa 0,0 l/m 4,5 km/h (1 Bft) 0 min
11.12.2013 02:05 21,2 C 5,2 C -4,3 C 98 % 0 % 1028 hPa 0,0 l/m 5,6 km/h (1 Bft) 0 min
11.12.2013 02:08 21,2 C 5,2 C -4,3 C 98 % 0 % 1028 hPa 0,0 l/m 3,3 km/h (1 Bft) 0 min
11.12.2013 02:11 21,2 C 5,2 C -4,3 C 98 % 0 % 1028 hPa 0,0 l/m 6,1 km/h (2 Bft) 0 min
11.12.2013 02:14 21,2 C 5,2 C -4,3 C 98 % 0 % 1028 hPa 0,0 l/m 6,1 km/h (2 Bft) 0 min
11.12.2013 02:17 21,2 C 5,2 C -4,3 C 98 % 0 % 1028 hPa 0,0 l/m 6,1 km/h (2 Bft) 0 min
11.12.2013 02:20 21,2 C 5,2 C -4,3 C 98 % 0 % 1028 hPa 0,0 l/m 4,6 km/h (1 Bft) 0 min
11.12.2013 02:23 21,2 C 5,1 C -4,3 C 98 % 0 % 1028 hPa 0,0 l/m 0,1 km/h (0 Bft) 0 min
11.12.2013 02:26 21,2 C 5,0 C -4,3 C 98 % 0 % 1028 hPa 0,0 l/m 0,2 km/h (0 Bft) 0 min
11.12.2013 02:29 21,2 C 5,0 C -4,3 C 98 % 0 % 1028 hPa 0,0 l/m 0,5 km/h (0 Bft) 0 min
11.12.2013 02:32 21,2 C 5,0 C -4,3 C 98 % 0 % 1028 hPa 0,0 l/m 2,7 km/h (1 Bft) 0 min
11.12.2013 02:35 21,2 C 4,9 C -4,3 C 99 % 0 % 1028 hPa 0,0 l/m 0,0 km/h (0 Bft) 0 min
11.12.2013 02:38 21,2 C 4,9 C -4,3 C 99 % 0 % 1028 hPa 0,0 l/m 4,6 km/h (1 Bft) 0 min
11.12.2013 02:41 21,2 C 4,8 C -4,3 C 99 % 0 % 1028 hPa 0,0 l/m 5,3 km/h (1 Bft) 0 min
11.12.2013 02:44 21,2 C 4,8 C -4,3 C 99 % 0 % 1028 hPa 0,0 l/m 7,6 km/h (2 Bft) 0 min
11.12.2013 02:47 21,2 C 4,8 C -4,3 C 99 % 0 % 1028 hPa 0,0 l/m 5,8 km/h (2 Bft) 0 min
11.12.2013 02:50 21,2 C 4,8 C -4,3 C 99 % 0 % 1028 hPa 0,0 l/m 12,1 km/h (2 Bft) 0 min
11.12.2013 02:56 21,2 C 4,8 C -4,3 C 99 % 0 % 1028 hPa 0,0 l/m 10,2 km/h (2 Bft) 0 min
11.12.2013 02:59 21,2 C 4,8 C -4,3 C 99 % 0 % 1028 hPa 0,0 l/m 9,7 km/h (2 Bft) 0 min
11.12.2013 03:02 21,2 C 4,8 C -4,3 C 99 % 0 % 1028 hPa 0,0 l/m 9,7 km/h (2 Bft) 0 min
11.12.2013 03:05 21,2 C 4,7 C -4,3 C 99 % 0 % 1028 hPa 0,0 l/m 7,6 km/h (2 Bft) 0 min
11.12.2013 03:08 21,2 C 4,6 C -4,3 C 99 % 0 % 1028 hPa 0,0 l/m 9,5 km/h (2 Bft) 0 min
11.12.2013 03:11 21,2 C 4,6 C -4,3 C 99 % 0 % 1028 hPa 0,0 l/m 8,3 km/h (2 Bft) 0 min
11.12.2013 03:14 21,2 C 4,5 C -4,3 C 99 % 0 % 1028 hPa 0,0 l/m 8,9 km/h (2 Bft) 0 min
11.12.2013 03:17 21,2 C 4,4 C -4,3 C 99 % 0 % 1028 hPa 0,0 l/m 7,2 km/h (2 Bft) 0 min
11.12.2013 03:20 21,2 C 4,4 C -4,3 C 99 % 0 % 1028 hPa 0,0 l/m 4,0 km/h (1 Bft) 0 min
11.12.2013 03:23 21,2 C 4,4 C -4,3 C 99 % 0 % 1028 hPa 0,0 l/m 5,5 km/h (1 Bft) 0 min
11.12.2013 03:26 21,2 C 4,4 C -4,3 C 99 % 0 % 1028 hPa 0,0 l/m 2,1 km/h (1 Bft) 0 min
11.12.2013 03:29 21,2 C 4,3 C -4,3 C 99 % 0 % 1028 hPa 0,0 l/m 0,3 km/h (0 Bft) 0 min
11.12.2013 03:32 21,1 C 4,3 C -4,3 C 99 % 0 % 1028 hPa 0,0 l/m 2,6 km/h (1 Bft) 0 min
11.12.2013 03:35 21,2 C 4,3 C -4,3 C 99 % 0 % 1028 hPa 0,0 l/m 0,1 km/h (0 Bft) 0 min
11.12.2013 03:38 21,2 C 4,2 C -4,3 C 99 % 0 % 1028 hPa 0,0 l/m 2,4 km/h (1 Bft) 0 min
11.12.2013 03:41 21,2 C 4,2 C -4,3 C 99 % 0 % 1028 hPa 0,0 l/m 0,0 km/h (0 Bft) 0 min
11.12.2013 03:44 21,2 C 4,2 C -4,3 C 99 % 0 % 1028 hPa 0,0 l/m 2,4 km/h (1 Bft) 0 min
11.12.2013 03:47 21,1 C 4,1 C -4,3 C 99 % 0 % 1028 hPa 0,0 l/m 2,6 km/h (1 Bft) 0 min
11.12.2013 03:50 21,1 C 4,1 C -4,3 C 99 % 0 % 1028 hPa 0,0 l/m 4,3 km/h (1 Bft) 0 min
11.12.2013 03:56 21,1 C 4,0 C -4,3 C 99 % 0 % 1028 hPa 0,0 l/m 4,7 km/h (1 Bft) 0 min
11.12.2013 03:59 21,1 C 4,0 C -4,3 C 99 % 0 % 1028 hPa 0,0 l/m 4,2 km/h (1 Bft) 0 min
11.12.2013 04:02 21,1 C 3,9 C -4,3 C 99 % 0 % 1028 hPa 0,0 l/m 3,1 km/h (1 Bft) 0 min
11.12.2013 04:05 21,1 C 3,9 C -4,3 C 99 % 0 % 1028 hPa 0,0 l/m 1,0 km/h (0 Bft) 0 min
11.12.2013 04:08 21,1 C 3,9 C -4,3 C 99 % 0 % 1028 hPa 0,0 l/m 1,1 km/h (1 Bft) 0 min
11.12.2013 04:11 21,2 C 3,9 C -4,3 C 99 % 0 % 1029 hPa 0,0 l/m 1,9 km/h (1 Bft) 0 min
11.12.2013 04:14 21,2 C 3,9 C -4,3 C 99 % 0 % 1029 hPa 0,0 l/m 3,3 km/h (1 Bft) 0 min
11.12.2013 04:17 21,2 C 3,9 C -4,3 C 99 % 0 % 1029 hPa 0,0 l/m 2,7 km/h (1 Bft) 0 min
11.12.2013 04:20 21,2 C 3,8 C -4,3 C 99 % 0 % 1029 hPa 0,0 l/m 0,1 km/h (0 Bft) 0 min
11.12.2013 04:23 21,2 C 3,8 C -4,3 C 99 % 0 % 1029 hPa 0,0 l/m 0,1 km/h (0 Bft) 0 min
11.12.2013 04:26 21,2 C 3,8 C -4,3 C 99 % 0 % 1029 hPa 0,0 l/m 0,1 km/h (0 Bft) 0 min
11.12.2013 04:29 21,2 C 3,8 C -4,3 C 99 % 0 % 1029 hPa 0,0 l/m 0,3 km/h (0 Bft) 0 min
11.12.2013 04:32 21,2 C 3,8 C -4,3 C 99 % 0 % 1029 hPa 0,0 l/m 0,0 km/h (0 Bft) 0 min
11.12.2013 04:35 21,2 C 3,8 C -4,3 C 99 % 0 % 1029 hPa 0,0 l/m 0,0 km/h (0 Bft) 0 min
11.12.2013 04:38 21,2 C 3,8 C -4,3 C 99 % 0 % 1029 hPa 0,0 l/m 0,0 km/h (0 Bft) 0 min
11.12.2013 04:41 21,2 C 3,8 C -4,3 C 99 % 0 % 1029 hPa 0,0 l/m 0,0 km/h (0 Bft) 0 min
11.12.2013 04:44 21,3 C 3,8 C -4,3 C 99 % 0 % 1029 hPa 0,0 l/m 0,8 km/h (0 Bft) 0 min
11.12.2013 04:47 21,3 C 3,8 C -4,3 C 99 % 0 % 1029 hPa 0,0 l/m 2,8 km/h (1 Bft) 0 min
11.12.2013 04:50 21,3 C 3,7 C -4,3 C 99 % 0 % 1029 hPa 0,0 l/m 1,0 km/h (0 Bft) 0 min
11.12.2013 04:56 21,3 C 3,7 C -4,3 C 99 % 0 % 1029 hPa 0,0 l/m 0,4 km/h (0 Bft) 0 min
11.12.2013 04:59 21,3 C 3,7 C -4,3 C 99 % 0 % 1028 hPa 0,0 l/m 0,3 km/h (0 Bft) 0 min
11.12.2013 05:02 21,3 C 3,7 C -4,3 C 99 % 0 % 1028 hPa 0,0 l/m 3,4 km/h (1 Bft) 0 min
11.12.2013 05:05 21,4 C 3,7 C -4,3 C 99 % 0 % 1028 hPa 0,0 l/m 0,3 km/h (0 Bft) 0 min
11.12.2013 05:08 21,4 C 3,7 C -4,3 C 99 % 0 % 1028 hPa 0,0 l/m 1,5 km/h (1 Bft) 0 min
11.12.2013 05:11 21,4 C 3,7 C -4,3 C 99 % 0 % 1028 hPa 0,0 l/m 0,1 km/h (0 Bft) 0 min
11.12.2013 05:14 21,4 C 3,7 C -4,3 C 99 % 0 % 1028 hPa 0,0 l/m 1,5 km/h (1 Bft) 0 min
11.12.2013 05:17 21,4 C 3,7 C -4,3 C 99 % 0 % 1028 hPa 0,0 l/m 3,3 km/h (1 Bft) 0 min
11.12.2013 05:20 21,4 C 3,7 C -4,3 C 99 % 0 % 1028 hPa 0,0 l/m 0,7 km/h (0 Bft) 0 min
11.12.2013 05:23 21,4 C 3,7 C -4,3 C 99 % 0 % 1028 hPa 0,0 l/m 1,8 km/h (1 Bft) 0 min
11.12.2013 05:26 21,4 C 3,7 C -4,3 C 99 % 0 % 1028 hPa 0,0 l/m 1,5 km/h (1 Bft) 0 min
11.12.2013 05:29 21,4 C 3,7 C -4,3 C 99 % 0 % 1028 hPa 0,0 l/m 0,0 km/h (0 Bft) 0 min
11.12.2013 05:32 21,4 C 3,8 C -4,3 C 99 % 0 % 1028 hPa 0,0 l/m 0,0 km/h (0 Bft) 0 min
11.12.2013 05:35 21,4 C 3,8 C -4,3 C 99 % 0 % 1028 hPa 0,0 l/m 0,0 km/h (0 Bft) 0 min
11.12.2013 05:38 21,4 C 3,8 C -4,3 C 99 % 0 % 1028 hPa 0,0 l/m 1,0 km/h (0 Bft) 0 min
11.12.2013 05:41 21,4 C 3,8 C -4,3 C 99 % 0 % 1028 hPa 0,0 l/m 3,3 km/h (1 Bft) 0 min
11.12.2013 05:44 21,4 C 3,8 C -4,3 C 99 % 0 % 1028 hPa 0,0 l/m 5,2 km/h (1 Bft) 0 min
11.12.2013 05:47 21,4 C 3,9 C -4,3 C 99 % 0 % 1028 hPa 0,0 l/m 5,2 km/h (1 Bft) 0 min
11.12.2013 05:50 21,4 C 3,9 C -4,3 C 99 % 0 % 1028 hPa 0,0 l/m 6,8 km/h (2 Bft) 0 min
11.12.2013 05:56 21,4 C 3,9 C -4,3 C 99 % 0 % 1028 hPa 0,0 l/m 6,9 km/h (2 Bft) 0 min
11.12.2013 05:59 21,4 C 3,9 C -4,3 C 99 % 0 % 1028 hPa 0,0 l/m 7,9 km/h (2 Bft) 0 min
11.12.2013 06:02 21,4 C 3,9 C -4,3 C 99 % 0 % 1028 hPa 0,0 l/m 6,5 km/h (2 Bft) 0 min
11.12.2013 06:05 21,4 C 4,0 C -4,3 C 99 % 0 % 1028 hPa 0,0 l/m 6,9 km/h (2 Bft) 0 min
11.12.2013 06:08 21,4 C 4,0 C -4,3 C 99 % 0 % 1028 hPa 0,0 l/m 7,8 km/h (2 Bft) 0 min
11.12.2013 06:11 21,4 C 4,0 C -4,3 C 99 % 0 % 1028 hPa 0,0 l/m 7,6 km/h (2 Bft) 0 min
11.12.2013 06:14 21,4 C 4,0 C -4,3 C 99 % 0 % 1028 hPa 0,0 l/m 7,8 km/h (2 Bft) 0 min
11.12.2013 06:17 21,4 C 4,0 C -4,3 C 99 % 0 % 1028 hPa 0,0 l/m 14,2 km/h (3 Bft) 0 min
11.12.2013 06:20 21,4 C 4,0 C -4,3 C 99 % 0 % 1028 hPa 0,0 l/m 12,5 km/h (3 Bft) 0 min
11.12.2013 06:23 21,4 C 4,0 C -4,3 C 99 % 0 % 1028 hPa 0,0 l/m 12,0 km/h (2 Bft) 0 min
11.12.2013 06:26 21,4 C 4,0 C -4,3 C 99 % 0 % 1028 hPa 0,0 l/m 10,9 km/h (2 Bft) 0 min
11.12.2013 06:29 21,4 C 4,0 C -4,3 C 99 % 0 % 1028 hPa 0,0 l/m 13,7 km/h (3 Bft) 0 min
11.12.2013 06:32 21,4 C 4,0 C -4,3 C 99 % 0 % 1028 hPa 0,0 l/m 13,7 km/h (3 Bft) 0 min
11.12.2013 06:35 21,5 C 4,0 C -4,3 C 99 % 0 % 1028 hPa 0,0 l/m 15,3 km/h (3 Bft) 0 min
11.12.2013 06:38 21,5 C 4,0 C -4,3 C 99 % 0 % 1028 hPa 0,0 l/m 10,1 km/h (2 Bft) 0 min
11.12.2013 06:41 21,5 C 4,0 C -4,3 C 99 % 0 % 1028 hPa 0,0 l/m 4,1 km/h (1 Bft) 0 min
11.12.2013 06:44 21,5 C 4,0 C -4,3 C 99 % 0 % 1028 hPa 0,0 l/m 6,1 km/h (2 Bft) 0 min
11.12.2013 06:47 21,6 C 4,0 C -4,3 C 99 % 0 % 1028 hPa 0,0 l/m 12,8 km/h (3 Bft) 0 min
11.12.2013 06:50 21,6 C 4,0 C -4,3 C 99 % 0 % 1028 hPa 0,0 l/m 7,9 km/h (2 Bft) 0 min
11.12.2013 06:53 21,7 C 4,0 C -4,3 C 99 % 0 % 1028 hPa 0,0 l/m 8,9 km/h (2 Bft) 0 min
11.12.2013 06:56 21,7 C 4,0 C -4,3 C 99 % 0 % 1028 hPa 0,0 l/m 10,2 km/h (2 Bft) 0 min
11.12.2013 06:59 21,7 C 3,9 C -4,3 C 99 % 0 % 1028 hPa 0,0 l/m 9,0 km/h (2 Bft) 0 min
11.12.2013 07:02 21,7 C 3,9 C -4,3 C 99 % 0 % 1028 hPa 0,0 l/m 11,6 km/h (2 Bft) 0 min
11.12.2013 07:05 21,7 C 3,9 C -4,3 C 99 % 0 % 1028 hPa 0,0 l/m 11,0 km/h (2 Bft) 0 min
11.12.2013 07:08 21,7 C 3,9 C -4,3 C 99 % 0 % 1028 hPa 0,0 l/m 8,0 km/h (2 Bft) 0 min
11.12.2013 07:11 21,7 C 3,9 C -4,3 C 99 % 0 % 1028 hPa 0,0 l/m 13,2 km/h (3 Bft) 0 min
11.12.2013 07:14 21,6 C 3,9 C -4,3 C 99 % 0 % 1028 hPa 0,0 l/m 11,8 km/h (2 Bft) 0 min
11.12.2013 07:17 21,7 C 3,9 C -4,3 C 99 % 0 % 1028 hPa 0,0 l/m 11,0 km/h (2 Bft) 0 min
11.12.2013 07:20 21,6 C 3,9 C -4,3 C 99 % 0 % 1028 hPa 0,0 l/m 9,2 km/h (2 Bft) 0 min
11.12.2013 07:23 21,6 C 3,9 C -4,3 C 99 % 0 % 1028 hPa 0,0 l/m 11,0 km/h (2 Bft) 0 min
11.12.2013 07:26 21,7 C 3,9 C -4,3 C 99 % 0 % 1028 hPa 0,0 l/m 11,0 km/h (2 Bft) 0 min
11.12.2013 07:29 21,6 C 3,9 C -4,3 C 99 % 0 % 1028 hPa 0,0 l/m 12,3 km/h (3 Bft) 0 min
11.12.2013 07:32 21,6 C 3,9 C -4,3 C 99 % 0 % 1028 hPa 0,0 l/m 9,5 km/h (2 Bft) 0 min
11.12.2013 07:35 21,6 C 3,9 C -4,3 C 99 % 0 % 1028 hPa 0,0 l/m 9,6 km/h (2 Bft) 0 min
11.12.2013 07:38 21,6 C 3,9 C -4,3 C 99 % 0 % 1028 hPa 0,0 l/m 10,6 km/h (2 Bft) 0 min
11.12.2013 07:41 21,6 C 3,8 C -4,3 C 99 % 0 % 1028 hPa 0,0 l/m 10,0 km/h (2 Bft) 0 min
11.12.2013 07:44 21,6 C 3,8 C -4,3 C 99 % 0 % 1028 hPa 0,0 l/m 10,7 km/h (2 Bft) 0 min
11.12.2013 07:47 21,6 C 3,8 C -4,3 C 99 % 0 % 1028 hPa 0,0 l/m 12,2 km/h (2 Bft) 0 min
11.12.2013 07:50 21,6 C 3,8 C -4,3 C 99 % 0 % 1028 hPa 0,0 l/m 9,5 km/h (2 Bft) 0 min
11.12.2013 07:53 21,6 C 3,8 C -4,3 C 99 % 0 % 1029 hPa 0,0 l/m 5,7 km/h (1 Bft) 0 min
11.12.2013 07:56 21,6 C 3,8 C -4,3 C 99 % 0 % 1029 hPa 0,0 l/m 7,6 km/h (2 Bft) 0 min
11.12.2013 07:59 21,6 C 3,8 C -4,3 C 99 % 0 % 1029 hPa 0,0 l/m 7,5 km/h (2 Bft) 0 min
11.12.2013 08:02 21,6 C 3,8 C -4,3 C 99 % 0 % 1029 hPa 0,0 l/m 10,4 km/h (2 Bft) 0 min
11.12.2013 08:05 21,6 C 3,8 C -4,3 C 99 % 0 % 1029 hPa 0,0 l/m 11,9 km/h (2 Bft) 0 min
11.12.2013 08:08 21,6 C 3,8 C -4,3 C 99 % 0 % 1029 hPa 0,0 l/m 8,4 km/h (2 Bft) 0 min
11.12.2013 08:11 21,6 C 3,8 C -4,3 C 99 % 1 % 1029 hPa 0,0 l/m 9,3 km/h (2 Bft) 0 min
11.12.2013 08:14 21,6 C 3,8 C -4,3 C 99 % 1 % 1029 hPa 0,0 l/m 8,9 km/h (2 Bft) 0 min
11.12.2013 08:17 21,6 C 3,8 C -4,3 C 99 % 1 % 1029 hPa 0,0 l/m 11,5 km/h (2 Bft) 0 min
11.12.2013 08:20 21,6 C 3,8 C -4,3 C 99 % 1 % 1029 hPa 0,0 l/m 11,6 km/h (2 Bft) 0 min
11.12.2013 08:23 21,6 C 3,8 C -4,3 C 99 % 1 % 1029 hPa 0,0 l/m 6,3 km/h (2 Bft) 0 min
11.12.2013 08:26 21,6 C 3,8 C -4,3 C 99 % 1 % 1029 hPa 0,0 l/m 3,1 km/h (1 Bft) 0 min
11.12.2013 08:29 21,6 C 3,8 C -4,3 C 99 % 1 % 1029 hPa 0,0 l/m 3,3 km/h (1 Bft) 0 min
11.12.2013 08:32 21,6 C 3,8 C -4,3 C 99 % 1 % 1029 hPa 0,0 l/m 3,0 km/h (1 Bft) 0 min
11.12.2013 08:35 21,6 C 3,8 C -4,3 C 99 % 2 % 1029 hPa 0,0 l/m 3,0 km/h (1 Bft) 0 min
11.12.2013 08:38 21,6 C 3,8 C -4,3 C 99 % 2 % 1028 hPa 0,0 l/m 5,2 km/h (1 Bft) 0 min
11.12.2013 08:41 21,6 C 3,8 C -4,3 C 99 % 2 % 1028 hPa 0,0 l/m 8,3 km/h (2 Bft) 0 min
11.12.2013 08:44 21,6 C 3,8 C -4,3 C 99 % 2 % 1029 hPa 0,0 l/m 4,6 km/h (1 Bft) 0 min
11.12.2013 08:47 21,6 C 3,8 C -4,3 C 99 % 2 % 1029 hPa 0,0 l/m 6,0 km/h (2 Bft) 0 min
11.12.2013 08:50 21,6 C 3,8 C -4,3 C 99 % 2 % 1029 hPa 0,0 l/m 5,6 km/h (1 Bft) 0 min
11.12.2013 08:53 21,6 C 3,8 C -4,3 C 99 % 2 % 1029 hPa 0,0 l/m 8,6 km/h (2 Bft) 0 min
11.12.2013 08:56 21,6 C 3,8 C -4,3 C 99 % 3 % 1029 hPa 0,0 l/m 8,6 km/h (2 Bft) 0 min
11.12.2013 08:59 21,6 C 3,8 C -4,3 C 99 % 3 % 1029 hPa 0,0 l/m 7,7 km/h (2 Bft) 0 min
11.12.2013 09:02 21,6 C 3,8 C -4,3 C 99 % 3 % 1029 hPa 0,0 l/m 11,1 km/h (2 Bft) 0 min
11.12.2013 09:05 21,6 C 3,8 C -4,3 C 99 % 3 % 1029 hPa 0,0 l/m 11,1 km/h (2 Bft) 0 min
11.12.2013 09:08 21,6 C 3,7 C -4,3 C 99 % 3 % 1029 hPa 0,0 l/m 10,8 km/h (2 Bft) 0 min
11.12.2013 09:11 21,6 C 3,7 C -4,3 C 99 % 3 % 1029 hPa 0,0 l/m 11,4 km/h (2 Bft) 0 min
11.12.2013 09:14 21,6 C 3,7 C -4,3 C 99 % 3 % 1029 hPa 0,0 l/m 7,2 km/h (2 Bft) 0 min
11.12.2013 09:17 21,6 C 3,7 C -4,3 C 99 % 4 % 1029 hPa 0,0 l/m 8,9 km/h (2 Bft) 0 min
11.12.2013 09:20 21,6 C 3,7 C -4,3 C 99 % 4 % 1029 hPa 0,0 l/m 8,9 km/h (2 Bft) 0 min
11.12.2013 09:23 21,6 C 3,7 C -4,3 C 99 % 4 % 1029 hPa 0,0 l/m 11,2 km/h (2 Bft) 0 min
11.12.2013 09:26 21,6 C 3,7 C -4,3 C 99 % 4 % 1029 hPa 0,0 l/m 6,7 km/h (2 Bft) 0 min
11.12.2013 09:29 21,6 C 3,7 C -4,3 C 99 % 4 % 1029 hPa 0,0 l/m 3,9 km/h (1 Bft) 0 min
11.12.2013 09:32 21,6 C 3,7 C -4,3 C 99 % 5 % 1029 hPa 0,0 l/m 2,3 km/h (1 Bft) 0 min
11.12.2013 09:35 21,6 C 3,7 C -4,3 C 99 % 5 % 1029 hPa 0,0 l/m 2,7 km/h (1 Bft) 0 min
11.12.2013 09:38 21,6 C 3,7 C -4,3 C 99 % 5 % 1029 hPa 0,0 l/m 5,4 km/h (1 Bft) 0 min
11.12.2013 09:41 21,6 C 3,7 C -4,3 C 99 % 5 % 1029 hPa 0,0 l/m 5,7 km/h (1 Bft) 0 min
11.12.2013 09:44 21,6 C 3,7 C -4,3 C 99 % 5 % 1029 hPa 0,0 l/m 8,3 km/h (2 Bft) 0 min
11.12.2013 09:47 21,6 C 3,7 C -4,3 C 99 % 5 % 1029 hPa 0,0 l/m 5,7 km/h (1 Bft) 0 min
11.12.2013 09:50 21,6 C 3,7 C -4,3 C 99 % 5 % 1029 hPa 0,0 l/m 6,8 km/h (2 Bft) 0 min
11.12.2013 09:53 21,6 C 3,7 C -4,3 C 99 % 5 % 1029 hPa 0,0 l/m 8,8 km/h (2 Bft) 0 min
11.12.2013 09:56 21,6 C 3,7 C -4,3 C 99 % 5 % 1029 hPa 0,0 l/m 8,8 km/h (2 Bft) 0 min
11.12.2013 09:59 21,6 C 3,6 C -4,3 C 99 % 5 % 1029 hPa 0,0 l/m 10,1 km/h (2 Bft) 0 min
11.12.2013 10:02 21,6 C 3,6 C -4,3 C 99 % 5 % 1029 hPa 0,0 l/m 10,2 km/h (2 Bft) 0 min
11.12.2013 10:05 21,6 C 3,6 C -4,3 C 99 % 5 % 1029 hPa 0,0 l/m 10,1 km/h (2 Bft) 0 min
11.12.2013 10:08 21,6 C 3,6 C -4,3 C 99 % 6 % 1029 hPa 0,0 l/m 9,7 km/h (2 Bft) 0 min
11.12.2013 10:11 21,6 C 3,6 C -4,3 C 99 % 6 % 1029 hPa 0,0 l/m 7,3 km/h (2 Bft) 0 min
11.12.2013 10:14 21,6 C 3,6 C -4,3 C 99 % 7 % 1029 hPa 0,0 l/m 5,2 km/h (1 Bft) 0 min
11.12.2013 10:17 21,6 C 3,6 C -4,3 C 99 % 6 % 1029 hPa 0,0 l/m 6,7 km/h (2 Bft) 0 min
11.12.2013 10:20 21,6 C 3,6 C -4,3 C 99 % 7 % 1029 hPa 0,0 l/m 4,1 km/h (1 Bft) 0 min
11.12.2013 10:23 21,6 C 3,6 C -4,3 C 99 % 6 % 1029 hPa 0,0 l/m 2,7 km/h (1 Bft) 0 min
11.12.2013 10:26 21,6 C 3,6 C -4,3 C 99 % 6 % 1029 hPa 0,0 l/m 6,4 km/h (2 Bft) 0 min
11.12.2013 10:29 21,6 C 3,6 C -4,3 C 99 % 6 % 1029 hPa 0,0 l/m 5,6 km/h (1 Bft) 0 min
11.12.2013 10:32 21,6 C 3,6 C -4,3 C 99 % 6 % 1029 hPa 0,0 l/m 8,7 km/h (2 Bft) 0 min
11.12.2013 10:35 21,6 C 3,6 C -4,3 C 99 % 6 % 1029 hPa 0,0 l/m 7,9 km/h (2 Bft) 0 min
11.12.2013 10:38 21,6 C 3,6 C -4,3 C 99 % 6 % 1029 hPa 0,0 l/m 12,5 km/h (3 Bft) 0 min
11.12.2013 10:41 21,6 C 3,6 C -4,3 C 99 % 7 % 1029 hPa 0,0 l/m 11,0 km/h (2 Bft) 0 min
11.12.2013 10:44 21,6 C 3,6 C -4,3 C 99 % 7 % 1029 hPa 0,0 l/m 4,7 km/h (1 Bft) 0 min
11.12.2013 10:47 21,6 C 3,6 C -4,3 C 99 % 7 % 1029 hPa 0,0 l/m 4,7 km/h (1 Bft) 0 min
11.12.2013 10:50 21,6 C 3,5 C -4,3 C 99 % 7 % 1029 hPa 0,0 l/m 5,9 km/h (2 Bft) 0 min
11.12.2013 10:53 21,6 C 3,5 C -4,3 C 99 % 7 % 1029 hPa 0,0 l/m 10,7 km/h (2 Bft) 0 min
11.12.2013 10:56 21,6 C 3,5 C -4,3 C 99 % 7 % 1029 hPa 0,0 l/m 9,8 km/h (2 Bft) 0 min
11.12.2013 10:59 21,6 C 3,5 C -4,3 C 99 % 7 % 1029 hPa 0,0 l/m 8,6 km/h (2 Bft) 0 min
11.12.2013 11:02 21,6 C 3,5 C -4,3 C 99 % 7 % 1029 hPa 0,0 l/m 6,9 km/h (2 Bft) 0 min
11.12.2013 11:05 21,6 C 3,5 C -4,3 C 99 % 7 % 1029 hPa 0,0 l/m 6,2 km/h (2 Bft) 0 min
11.12.2013 11:08 21,6 C 3,5 C -4,3 C 99 % 7 % 1029 hPa 0,0 l/m 9,5 km/h (2 Bft) 0 min
11.12.2013 11:11 21,6 C 3,5 C -4,3 C 99 % 7 % 1029 hPa 0,0 l/m 8,1 km/h (2 Bft) 0 min
11.12.2013 11:14 21,6 C 3,5 C -4,3 C 99 % 7 % 1029 hPa 0,0 l/m 10,8 km/h (2 Bft) 0 min
11.12.2013 11:17 21,6 C 3,5 C -4,3 C 99 % 7 % 1029 hPa 0,0 l/m 9,2 km/h (2 Bft) 0 min
11.12.2013 11:20 21,6 C 3,4 C -4,3 C 99 % 7 % 1029 hPa 0,0 l/m 12,5 km/h (3 Bft) 0 min
11.12.2013 11:23 21,6 C 3,4 C -4,3 C 99 % 8 % 1029 hPa 0,0 l/m 12,5 km/h (3 Bft) 0 min
11.12.2013 11:26 21,6 C 3,4 C -4,3 C 99 % 8 % 1029 hPa 0,0 l/m 10,6 km/h (2 Bft) 0 min
11.12.2013 11:29 21,6 C 3,3 C -4,3 C 99 % 9 % 1029 hPa 0,0 l/m 9,2 km/h (2 Bft) 0 min
11.12.2013 11:32 21,6 C 3,3 C -4,3 C 99 % 9 % 1029 hPa 0,0 l/m 7,6 km/h (2 Bft) 0 min
11.12.2013 11:35 21,6 C 3,3 C -4,3 C 99 % 8 % 1029 hPa 0,0 l/m 8,9 km/h (2 Bft) 0 min
11.12.2013 11:38 21,6 C 3,3 C -4,3 C 99 % 9 % 1029 hPa 0,0 l/m 7,4 km/h (2 Bft) 0 min
11.12.2013 11:41 21,6 C 3,3 C -4,3 C 99 % 9 % 1029 hPa 0,0 l/m 9,0 km/h (2 Bft) 0 min
11.12.2013 11:44 21,6 C 3,3 C -4,3 C 99 % 9 % 1029 hPa 0,0 l/m 8,4 km/h (2 Bft) 0 min
11.12.2013 11:47 21,6 C 3,3 C -4,3 C 99 % 9 % 1029 hPa 0,0 l/m 7,8 km/h (2 Bft) 0 min
11.12.2013 11:50 21,6 C 3,3 C -4,3 C 99 % 9 % 1028 hPa 0,0 l/m 9,2 km/h (2 Bft) 0 min
11.12.2013 11:53 21,6 C 3,3 C -4,3 C 99 % 9 % 1028 hPa 0,0 l/m 9,2 km/h (2 Bft) 0 min
11.12.2013 11:56 21,6 C 3,3 C -4,3 C 99 % 9 % 1028 hPa 0,0 l/m 6,9 km/h (2 Bft) 0 min
11.12.2013 11:59 21,6 C 3,3 C -4,3 C 99 % 9 % 1028 hPa 0,0 l/m 9,6 km/h (2 Bft) 0 min
11.12.2013 12:02 21,6 C 3,3 C -4,3 C 99 % 9 % 1028 hPa 0,0 l/m 10,4 km/h (2 Bft) 0 min
11.12.2013 12:05 21,6 C 3,3 C -4,3 C 99 % 10 % 1028 hPa 0,0 l/m 8,1 km/h (2 Bft) 0 min
11.12.2013 12:08 21,6 C 3,3 C -4,3 C 99 % 9 % 1028 hPa 0,0 l/m 8,1 km/h (2 Bft) 0 min
11.12.2013 12:11 21,6 C 3,3 C -4,3 C 99 % 9 % 1028 hPa 0,0 l/m 6,2 km/h (2 Bft) 0 min
11.12.2013 12:14 21,6 C 3,3 C -4,3 C 99 % 9 % 1028 hPa 0,0 l/m 8,3 km/h (2 Bft) 0 min
11.12.2013 12:17 21,6 C 3,3 C -4,3 C 99 % 9 % 1028 hPa 0,0 l/m 6,9 km/h (2 Bft) 0 min
11.12.2013 12:20 21,6 C 3,3 C -4,3 C 99 % 9 % 1028 hPa 0,0 l/m 4,8 km/h (1 Bft) 0 min
11.12.2013 12:23 21,6 C 3,3 C -4,3 C 99 % 9 % 1028 hPa 0,0 l/m 5,6 km/h (1 Bft) 0 min
11.12.2013 12:26 21,6 C 3,4 C -4,3 C 99 % 9 % 1028 hPa 0,0 l/m 8,2 km/h (2 Bft) 0 min
11.12.2013 12:29 21,6 C 3,3 C -4,3 C 99 % 9 % 1028 hPa 0,0 l/m 5,8 km/h (2 Bft) 0 min
11.12.2013 12:32 21,6 C 3,3 C -4,3 C 99 % 9 % 1028 hPa 0,0 l/m 7,4 km/h (2 Bft) 0 min
11.12.2013 12:35 21,6 C 3,3 C -4,3 C 99 % 9 % 1028 hPa 0,0 l/m 7,0 km/h (2 Bft) 0 min
11.12.2013 12:38 21,6 C 3,3 C -4,3 C 99 % 9 % 1028 hPa 0,0 l/m 5,8 km/h (2 Bft) 0 min
11.12.2013 12:41 21,6 C 3,3 C -4,3 C 99 % 9 % 1028 hPa 0,0 l/m 7,4 km/h (2 Bft) 0 min
11.12.2013 12:44 21,6 C 3,3 C -4,3 C 99 % 9 % 1028 hPa 0,0 l/m 6,7 km/h (2 Bft) 0 min
11.12.2013 12:47 21,6 C 3,3 C -4,3 C 99 % 9 % 1028 hPa 0,0 l/m 6,7 km/h (2 Bft) 0 min
11.12.2013 12:50 21,6 C 3,3 C -4,3 C 99 % 8 % 1028 hPa 0,0 l/m 5,2 km/h (1 Bft) 0 min
11.12.2013 12:53 21,6 C 3,3 C -4,3 C 99 % 9 % 1028 hPa 0,0 l/m 5,2 km/h (1 Bft) 0 min
11.12.2013 12:56 21,6 C 3,4 C -4,3 C 99 % 8 % 1028 hPa 0,0 l/m 4,1 km/h (1 Bft) 0 min
11.12.2013 12:59 21,6 C 3,4 C -4,3 C 99 % 8 % 1028 hPa 0,0 l/m 7,2 km/h (2 Bft) 0 min
11.12.2013 13:02 21,6 C 3,4 C -4,3 C 99 % 9 % 1028 hPa 0,0 l/m 9,6 km/h (2 Bft) 0 min
11.12.2013 13:05 21,6 C 3,3 C -4,3 C 99 % 9 % 1028 hPa 0,0 l/m 9,0 km/h (2 Bft) 0 min
11.12.2013 13:08 21,6 C 3,3 C -4,3 C 99 % 9 % 1028 hPa 0,0 l/m 9,4 km/h (2 Bft) 0 min
11.12.2013 13:11 21,6 C 3,3 C -4,3 C 99 % 9 % 1028 hPa 0,0 l/m 14,3 km/h (3 Bft) 0 min
11.12.2013 13:14 21,6 C 3,3 C -4,3 C 99 % 9 % 1028 hPa 0,0 l/m 11,5 km/h (2 Bft) 0 min
11.12.2013 13:17 21,6 C 3,2 C -4,3 C 99 % 9 % 1028 hPa 0,0 l/m 7,6 km/h (2 Bft) 0 min
11.12.2013 13:20 21,6 C 3,2 C -4,3 C 99 % 8 % 1028 hPa 0,0 l/m 1,1 km/h (1 Bft) 0 min
11.12.2013 13:23 21,6 C 3,2 C -4,3 C 99 % 8 % 1028 hPa 0,0 l/m 0,9 km/h (0 Bft) 0 min
11.12.2013 13:26 21,6 C 3,2 C -4,3 C 99 % 7 % 1028 hPa 0,0 l/m 3,3 km/h (1 Bft) 0 min
11.12.2013 13:29 21,6 C 3,2 C -4,3 C 99 % 6 % 1028 hPa 0,0 l/m 0,0 km/h (0 Bft) 0 min
11.12.2013 13:32 21,6 C 3,3 C -4,3 C 99 % 6 % 1028 hPa 0,0 l/m 2,1 km/h (1 Bft) 0 min
11.12.2013 13:35 21,6 C 3,3 C -4,3 C 99 % 6 % 1028 hPa 0,0 l/m 5,2 km/h (1 Bft) 0 min
11.12.2013 13:38 21,6 C 3,3 C -4,3 C 99 % 6 % 1028 hPa 0,0 l/m 4,9 km/h (1 Bft) 0 min
11.12.2013 13:41 21,6 C 3,3 C -4,3 C 99 % 6 % 1028 hPa 0,0 l/m 6,7 km/h (2 Bft) 0 min
11.12.2013 13:44 21,6 C 3,3 C -4,3 C 99 % 5 % 1028 hPa 0,0 l/m 4,0 km/h (1 Bft) 0 min
11.12.2013 13:47 21,6 C 3,3 C -4,3 C 99 % 5 % 1028 hPa 0,0 l/m 9,0 km/h (2 Bft) 0 min
11.12.2013 13:50 21,6 C 3,3 C -4,3 C 99 % 5 % 1028 hPa 0,0 l/m 7,0 km/h (2 Bft) 0 min
11.12.2013 13:53 21,6 C 3,3 C -4,3 C 99 % 5 % 1028 hPa 0,0 l/m 6,5 km/h (2 Bft) 0 min
11.12.2013 13:56 21,6 C 3,3 C -4,3 C 99 % 5 % 1028 hPa 0,0 l/m 10,5 km/h (2 Bft) 0 min
11.12.2013 13:59 21,6 C 3,3 C -4,3 C 99 % 5 % 1028 hPa 0,0 l/m 10,5 km/h (2 Bft) 0 min
11.12.2013 14:02 21,6 C 3,3 C -4,3 C 99 % 5 % 1028 hPa 0,0 l/m 10,5 km/h (2 Bft) 0 min
11.12.2013 14:05 21,6 C 3,3 C -4,3 C 99 % 5 % 1028 hPa 0,0 l/m 7,6 km/h (2 Bft) 0 min
11.12.2013 14:08 21,6 C 3,3 C -4,3 C 99 % 5 % 1028 hPa 0,0 l/m 5,7 km/h (1 Bft) 0 min
11.12.2013 14:11 21,6 C 3,2 C -4,3 C 99 % 4 % 1028 hPa 0,0 l/m 2,9 km/h (1 Bft) 0 min
11.12.2013 14:14 21,6 C 3,3 C -4,3 C 99 % 4 % 1028 hPa 0,0 l/m 3,9 km/h (1 Bft) 0 min
11.12.2013 14:17 21,6 C 3,3 C -4,3 C 99 % 4 % 1028 hPa 0,0 l/m 3,8 km/h (1 Bft) 0 min
11.12.2013 14:20 21,6 C 3,2 C -4,3 C 99 % 5 % 1028 hPa 0,0 l/m 10,8 km/h (2 Bft) 0 min
11.12.2013 14:23 21,6 C 3,2 C -4,3 C 99 % 5 % 1028 hPa 0,0 l/m 10,8 km/h (2 Bft) 0 min
11.12.2013 14:26 21,6 C 3,3 C -4,3 C 99 % 5 % 1028 hPa 0,0 l/m 0,0 km/h (0 Bft) 0 min
11.12.2013 14:29 21,6 C 3,3 C -4,3 C 99 % 4 % 1028 hPa 0,0 l/m 0,0 km/h (0 Bft) 0 min
11.12.2013 14:32 21,6 C 3,3 C -4,3 C 99 % 4 % 1028 hPa 0,0 l/m 0,0 km/h (0 Bft) 0 min
11.12.2013 14:35 21,6 C 3,3 C -4,3 C 99 % 4 % 1027 hPa 0,0 l/m 2,4 km/h (1 Bft) 0 min
11.12.2013 14:38 21,6 C 3,3 C -4,3 C 99 % 4 % 1027 hPa 0,0 l/m 1,3 km/h (1 Bft) 0 min
11.12.2013 14:41 21,6 C 3,3 C -4,3 C 99 % 4 % 1027 hPa 0,0 l/m 0,0 km/h (0 Bft) 0 min
11.12.2013 14:44 21,6 C 3,3 C -4,3 C 99 % 4 % 1027 hPa 0,0 l/m 5,5 km/h (1 Bft) 0 min
11.12.2013 14:47 21,6 C 3,3 C -4,3 C 99 % 3 % 1027 hPa 0,0 l/m 9,1 km/h (2 Bft) 0 min
11.12.2013 14:50 21,6 C 3,2 C -4,3 C 99 % 3 % 1027 hPa 0,0 l/m 6,4 km/h (2 Bft) 0 min
11.12.2013 14:53 21,6 C 3,2 C -4,3 C 99 % 3 % 1027 hPa 0,0 l/m 6,4 km/h (2 Bft) 0 min
11.12.2013 14:56 21,6 C 3,2 C -4,3 C 99 % 3 % 1027 hPa 0,0 l/m 5,6 km/h (1 Bft) 0 min
11.12.2013 14:59 21,6 C 3,2 C -4,3 C 99 % 3 % 1027 hPa 0,0 l/m 2,3 km/h (1 Bft) 0 min
11.12.2013 15:02 21,6 C 3,2 C -4,3 C 99 % 3 % 1027 hPa 0,0 l/m 0,1 km/h (0 Bft) 0 min
11.12.2013 15:05 21,6 C 3,2 C -4,3 C 99 % 3 % 1027 hPa 0,0 l/m 9,0 km/h (2 Bft) 0 min
11.12.2013 15:08 21,6 C 3,2 C -4,3 C 99 % 3 % 1027 hPa 0,0 l/m 5,7 km/h (1 Bft) 0 min
11.12.2013 15:11 21,6 C 3,2 C -4,3 C 99 % 2 % 1027 hPa 0,0 l/m 5,4 km/h (1 Bft) 0 min
11.12.2013 15:14 21,7 C 3,1 C -4,3 C 99 % 2 % 1027 hPa 0,0 l/m 3,1 km/h (1 Bft) 0 min
11.12.2013 15:17 21,7 C 3,1 C -4,3 C 99 % 2 % 1027 hPa 0,0 l/m 5,0 km/h (1 Bft) 0 min
11.12.2013 15:20 21,7 C 3,1 C -4,3 C 99 % 2 % 1027 hPa 0,0 l/m 0,1 km/h (0 Bft) 0 min
11.12.2013 15:23 21,8 C 3,1 C -4,3 C 99 % 2 % 1027 hPa 0,0 l/m 0,1 km/h (0 Bft) 0 min
11.12.2013 15:26 21,8 C 3,1 C -4,3 C 99 % 2 % 1027 hPa 0,0 l/m 2,6 km/h (1 Bft) 0 min
11.12.2013 15:29 21,8 C 3,1 C -4,3 C 99 % 1 % 1027 hPa 0,0 l/m 2,7 km/h (1 Bft) 0 min
11.12.2013 15:32 21,8 C 3,1 C -4,3 C 99 % 1 % 1027 hPa 0,0 l/m 0,4 km/h (0 Bft) 0 min
11.12.2013 15:35 21,8 C 3,1 C -4,3 C 99 % 1 % 1027 hPa 0,0 l/m 7,0 km/h (2 Bft) 0 min
11.12.2013 15:38 21,8 C 3,1 C -4,3 C 99 % 1 % 1027 hPa 0,0 l/m 0,1 km/h (0 Bft) 0 min
11.12.2013 15:41 21,8 C 3,1 C -4,3 C 99 % 1 % 1027 hPa 0,0 l/m 1,9 km/h (1 Bft) 0 min
11.12.2013 15:44 21,8 C 3,2 C -4,3 C 99 % 1 % 1027 hPa 0,0 l/m 3,3 km/h (1 Bft) 0 min
11.12.2013 15:47 21,8 C 3,2 C -4,3 C 99 % 1 % 1027 hPa 0,0 l/m 0,5 km/h (0 Bft) 0 min
11.12.2013 15:50 21,8 C 3,1 C -4,3 C 99 % 1 % 1027 hPa 0,0 l/m 4,5 km/h (1 Bft) 0 min
11.12.2013 15:53 21,8 C 3,1 C -4,3 C 99 % 1 % 1027 hPa 0,0 l/m 7,1 km/h (2 Bft) 0 min
11.12.2013 15:56 21,8 C 3,1 C -4,3 C 99 % 0 % 1027 hPa 0,0 l/m 3,7 km/h (1 Bft) 0 min
11.12.2013 15:59 21,8 C 3,0 C -4,3 C 99 % 0 % 1027 hPa 0,0 l/m 4,7 km/h (1 Bft) 0 min
11.12.2013 16:02 21,8 C 3,0 C -4,3 C 99 % 0 % 1027 hPa 0,0 l/m 4,1 km/h (1 Bft) 0 min
11.12.2013 16:05 21,8 C 3,0 C -4,3 C 99 % 0 % 1027 hPa 0,0 l/m 3,6 km/h (1 Bft) 0 min
11.12.2013 16:08 21,8 C 3,0 C -4,3 C 99 % 0 % 1027 hPa 0,0 l/m 2,8 km/h (1 Bft) 0 min
11.12.2013 16:11 21,8 C 3,0 C -4,3 C 99 % 0 % 1027 hPa 0,0 l/m 6,3 km/h (2 Bft) 0 min
11.12.2013 16:14 21,8 C 3,0 C -4,3 C 99 % 0 % 1027 hPa 0,0 l/m 7,2 km/h (2 Bft) 0 min
11.12.2013 16:17 21,8 C 3,0 C -4,3 C 99 % 0 % 1027 hPa 0,0 l/m 6,2 km/h (2 Bft) 0 min
11.12.2013 16:20 21,8 C 3,0 C -4,3 C 99 % 0 % 1027 hPa 0,0 l/m 4,8 km/h (1 Bft) 0 min
11.12.2013 16:23 21,8 C 2,9 C -4,3 C 99 % 0 % 1027 hPa 0,0 l/m 2,8 km/h (1 Bft) 0 min
11.12.2013 16:26 21,8 C 3,0 C -4,3 C 99 % 0 % 1027 hPa 0,0 l/m 4,8 km/h (1 Bft) 0 min
11.12.2013 16:29 21,8 C 3,0 C -4,3 C 99 % 0 % 1027 hPa 0,0 l/m 7,2 km/h (2 Bft) 0 min
11.12.2013 16:32 21,8 C 2,9 C -4,3 C 99 % 0 % 1027 hPa 0,0 l/m 6,8 km/h (2 Bft) 0 min
11.12.2013 16:35 21,8 C 2,9 C -4,3 C 99 % 0 % 1027 hPa 0,0 l/m 6,9 km/h (2 Bft) 0 min
11.12.2013 16:38 21,8 C 2,9 C -4,3 C 99 % 0 % 1027 hPa 0,0 l/m 8,7 km/h (2 Bft) 0 min
11.12.2013 16:41 21,8 C 2,9 C -4,3 C 99 % 0 % 1027 hPa 0,0 l/m 8,7 km/h (2 Bft) 0 min
11.12.2013 16:44 21,8 C 2,9 C -4,3 C 99 % 0 % 1027 hPa 0,0 l/m 4,0 km/h (1 Bft) 0 min
11.12.2013 16:47 21,8 C 2,8 C -4,3 C 99 % 0 % 1027 hPa 0,0 l/m 3,4 km/h (1 Bft) 0 min
11.12.2013 16:50 21,8 C 2,8 C -4,3 C 99 % 0 % 1027 hPa 0,0 l/m 4,3 km/h (1 Bft) 0 min
11.12.2013 16:53 21,9 C 2,8 C -4,3 C 99 % 0 % 1027 hPa 0,0 l/m 3,6 km/h (1 Bft) 0 min
11.12.2013 16:56 21,9 C 2,8 C -4,3 C 99 % 0 % 1027 hPa 0,0 l/m 5,7 km/h (1 Bft) 0 min
11.12.2013 16:59 21,9 C 2,8 C -4,3 C 99 % 0 % 1027 hPa 0,0 l/m 5,7 km/h (1 Bft) 0 min
11.12.2013 17:02 21,9 C 2,8 C -4,3 C 99 % 0 % 1027 hPa 0,0 l/m 5,7 km/h (1 Bft) 0 min
11.12.2013 17:05 21,9 C 2,8 C -4,3 C 99 % 0 % 1027 hPa 0,0 l/m 4,6 km/h (1 Bft) 0 min
11.12.2013 17:08 21,9 C 2,8 C -4,3 C 99 % 0 % 1027 hPa 0,0 l/m 5,4 km/h (1 Bft) 0 min
11.12.2013 17:11 22,0 C 2,8 C -4,3 C 99 % 0 % 1027 hPa 0,0 l/m 6,6 km/h (2 Bft) 0 min
11.12.2013 17:14 22,0 C 2,8 C -4,3 C 99 % 0 % 1027 hPa 0,0 l/m 3,6 km/h (1 Bft) 0 min
11.12.2013 17:17 22,0 C 2,8 C -4,3 C 99 % 0 % 1027 hPa 0,0 l/m 6,3 km/h (2 Bft) 0 min
11.12.2013 17:20 22,0 C 2,8 C -4,3 C 99 % 0 % 1027 hPa 0,0 l/m 4,1 km/h (1 Bft) 0 min
11.12.2013 17:23 22,0 C 2,8 C -4,3 C 99 % 0 % 1027 hPa 0,0 l/m 4,6 km/h (1 Bft) 0 min
11.12.2013 17:26 22,0 C 2,8 C -4,3 C 99 % 0 % 1027 hPa 0,0 l/m 7,2 km/h (2 Bft) 0 min
11.12.2013 17:29 22,0 C 2,8 C -4,3 C 99 % 0 % 1027 hPa 0,0 l/m 5,0 km/h (1 Bft) 0 min
11.12.2013 17:32 22,0 C 2,8 C -4,3 C 99 % 0 % 1027 hPa 0,0 l/m 5,8 km/h (2 Bft) 0 min
11.12.2013 17:35 22,0 C 2,8 C -4,3 C 99 % 0 % 1027 hPa 0,0 l/m 11,5 km/h (2 Bft) 0 min
11.12.2013 17:38 22,0 C 2,8 C -4,3 C 99 % 0 % 1027 hPa 0,0 l/m 7,4 km/h (2 Bft) 0 min
11.12.2013 17:41 21,9 C 2,8 C -4,3 C 99 % 0 % 1027 hPa 0,0 l/m 5,6 km/h (1 Bft) 0 min
11.12.2013 17:44 22,0 C 2,7 C -4,3 C 99 % 0 % 1027 hPa 0,0 l/m 12,0 km/h (2 Bft) 0 min
11.12.2013 17:47 21,9 C 2,7 C -4,3 C 99 % 0 % 1027 hPa 0,0 l/m 12,4 km/h (3 Bft) 0 min
11.12.2013 17:50 21,9 C 2,7 C -4,3 C 99 % 0 % 1027 hPa 0,0 l/m 12,4 km/h (3 Bft) 0 min
11.12.2013 17:53 21,9 C 2,7 C -4,3 C 99 % 0 % 1027 hPa 0,0 l/m 11,9 km/h (2 Bft) 0 min
11.12.2013 17:56 21,9 C 2,7 C -4,3 C 99 % 0 % 1027 hPa 0,0 l/m 8,6 km/h (2 Bft) 0 min
11.12.2013 17:59 21,9 C 2,6 C -4,3 C 99 % 0 % 1027 hPa 0,0 l/m 6,2 km/h (2 Bft) 0 min
11.12.2013 18:02 21,9 C 2,6 C -4,3 C 99 % 0 % 1027 hPa 0,0 l/m 10,3 km/h (2 Bft) 0 min
11.12.2013 18:05 22,0 C 2,6 C -4,3 C 99 % 0 % 1027 hPa 0,0 l/m 9,4 km/h (2 Bft) 0 min
11.12.2013 18:08 21,9 C 2,6 C -4,3 C 99 % 0 % 1027 hPa 0,0 l/m 6,5 km/h (2 Bft) 0 min
11.12.2013 18:11 21,8 C 2,6 C -4,3 C 99 % 0 % 1027 hPa 0,0 l/m 5,4 km/h (1 Bft) 0 min
11.12.2013 18:14 21,8 C 2,6 C -4,3 C 99 % 0 % 1027 hPa 0,0 l/m 0,7 km/h (0 Bft) 0 min
11.12.2013 18:17 21,8 C 2,6 C -4,3 C 99 % 0 % 1027 hPa 0,0 l/m 0,8 km/h (0 Bft) 0 min
11.12.2013 18:20 21,8 C 2,6 C -4,3 C 99 % 0 % 1027 hPa 0,0 l/m 0,1 km/h (0 Bft) 0 min
11.12.2013 18:23 21,8 C 2,6 C -4,3 C 99 % 0 % 1027 hPa 0,0 l/m 0,1 km/h (0 Bft) 0 min
11.12.2013 18:26 21,8 C 2,6 C -4,3 C 99 % 0 % 1027 hPa 0,0 l/m 1,3 km/h (1 Bft) 0 min
11.12.2013 18:29 21,8 C 2,6 C -4,3 C 99 % 0 % 1027 hPa 0,0 l/m 1,6 km/h (1 Bft) 0 min
11.12.2013 18:32 21,8 C 2,6 C -4,3 C 99 % 0 % 1027 hPa 0,0 l/m 2,8 km/h (1 Bft) 0 min
11.12.2013 18:35 21,8 C 2,6 C -4,3 C 99 % 0 % 1027 hPa 0,0 l/m 2,3 km/h (1 Bft) 0 min
11.12.2013 18:38 21,8 C 2,6 C -4,3 C 99 % 0 % 1027 hPa 0,0 l/m 0,9 km/h (0 Bft) 0 min
11.12.2013 18:41 21,8 C 2,6 C -4,3 C 99 % 0 % 1027 hPa 0,0 l/m 0,0 km/h (0 Bft) 0 min
11.12.2013 18:44 21,8 C 2,6 C -4,3 C 99 % 0 % 1027 hPa 0,0 l/m 4,6 km/h (1 Bft) 0 min
11.12.2013 18:47 21,8 C 2,6 C -4,3 C 99 % 0 % 1027 hPa 0,0 l/m 4,3 km/h (1 Bft) 0 min
11.12.2013 18:50 21,8 C 2,6 C -4,3 C 99 % 0 % 1027 hPa 0,0 l/m 4,3 km/h (1 Bft) 0 min
11.12.2013 18:53 21,8 C 2,6 C -4,3 C 99 % 0 % 1027 hPa 0,0 l/m 5,8 km/h (2 Bft) 0 min
11.12.2013 18:56 21,8 C 2,6 C -4,3 C 99 % 0 % 1027 hPa 0,0 l/m 13,1 km/h (3 Bft) 0 min
11.12.2013 18:59 21,8 C 2,5 C -4,3 C 99 % 0 % 1027 hPa 0,0 l/m 13,1 km/h (3 Bft) 0 min
11.12.2013 19:02 21,8 C 2,5 C -4,3 C 99 % 0 % 1027 hPa 0,0 l/m 8,1 km/h (2 Bft) 0 min
11.12.2013 19:05 21,8 C 2,5 C -4,3 C 99 % 0 % 1027 hPa 0,0 l/m 6,1 km/h (2 Bft) 0 min
11.12.2013 19:08 21,8 C 2,5 C -4,3 C 99 % 0 % 1027 hPa 0,0 l/m 3,9 km/h (1 Bft) 0 min
11.12.2013 19:11 21,8 C 2,5 C -4,3 C 99 % 0 % 1027 hPa 0,0 l/m 1,4 km/h (1 Bft) 0 min
11.12.2013 19:14 21,8 C 2,5 C -4,3 C 99 % 0 % 1027 hPa 0,0 l/m 3,8 km/h (1 Bft) 0 min
11.12.2013 19:17 21,8 C 2,5 C -4,3 C 99 % 0 % 1027 hPa 0,0 l/m 0,6 km/h (0 Bft) 0 min
11.12.2013 19:20 21,8 C 2,5 C -4,3 C 99 % 0 % 1027 hPa 0,0 l/m 6,9 km/h (2 Bft) 0 min
11.12.2013 19:23 21,8 C 2,5 C -4,3 C 99 % 0 % 1027 hPa 0,0 l/m 6,2 km/h (2 Bft) 0 min
11.12.2013 19:26 21,8 C 2,5 C -4,3 C 99 % 0 % 1027 hPa 0,0 l/m 6,5 km/h (2 Bft) 0 min
11.12.2013 19:29 21,8 C 2,5 C -4,3 C 99 % 0 % 1027 hPa 0,0 l/m 4,1 km/h (1 Bft) 0 min
11.12.2013 19:32 21,8 C 2,5 C -4,3 C 99 % 0 % 1027 hPa 0,0 l/m 1,0 km/h (0 Bft) 0 min
11.12.2013 19:35 21,8 C 2,5 C -4,3 C 99 % 0 % 1027 hPa 0,0 l/m 6,7 km/h (2 Bft) 0 min
11.12.2013 19:38 21,8 C 2,5 C -4,3 C 99 % 0 % 1027 hPa 0,0 l/m 7,0 km/h (2 Bft) 0 min
11.12.2013 19:41 21,8 C 2,4 C -4,3 C 99 % 0 % 1027 hPa 0,0 l/m 8,7 km/h (2 Bft) 0 min
11.12.2013 19:44 21,8 C 2,4 C -4,3 C 99 % 0 % 1027 hPa 0,0 l/m 5,0 km/h (1 Bft) 0 min
11.12.2013 19:47 21,8 C 2,4 C -4,3 C 99 % 0 % 1027 hPa 0,0 l/m 6,3 km/h (2 Bft) 0 min
11.12.2013 19:50 21,8 C 2,4 C -4,3 C 99 % 0 % 1027 hPa 0,0 l/m 4,8 km/h (1 Bft) 0 min
11.12.2013 19:53 21,8 C 2,4 C -4,3 C 99 % 0 % 1027 hPa 0,0 l/m 4,2 km/h (1 Bft) 0 min
11.12.2013 19:56 21,9 C 2,4 C -4,3 C 99 % 0 % 1027 hPa 0,0 l/m 7,2 km/h (2 Bft) 0 min
11.12.2013 19:59 21,8 C 2,4 C -4,3 C 99 % 0 % 1027 hPa 0,0 l/m 6,6 km/h (2 Bft) 0 min
11.12.2013 20:02 21,9 C 2,4 C -4,3 C 99 % 0 % 1027 hPa 0,0 l/m 5,9 km/h (2 Bft) 0 min
11.12.2013 20:05 21,9 C 2,4 C -4,3 C 99 % 0 % 1027 hPa 0,0 l/m 2,6 km/h (1 Bft) 0 min
11.12.2013 20:08 21,9 C 2,4 C -4,3 C 99 % 0 % 1027 hPa 0,0 l/m 4,7 km/h (1 Bft) 0 min
11.12.2013 20:11 21,9 C 2,4 C -4,3 C 99 % 0 % 1027 hPa 0,0 l/m 7,6 km/h (2 Bft) 0 min
11.12.2013 20:14 22,0 C 2,3 C -4,3 C 99 % 0 % 1027 hPa 0,0 l/m 9,2 km/h (2 Bft) 0 min
11.12.2013 20:17 22,0 C 2,3 C -4,3 C 99 % 0 % 1027 hPa 0,0 l/m 3,8 km/h (1 Bft) 0 min
11.12.2013 20:20 22,0 C 2,4 C -4,3 C 99 % 0 % 1027 hPa 0,0 l/m 5,4 km/h (1 Bft) 0 min
11.12.2013 20:23 22,0 C 2,3 C -4,3 C 99 % 0 % 1027 hPa 0,0 l/m 5,2 km/h (1 Bft) 0 min
11.12.2013 20:26 22,0 C 2,3 C -4,3 C 99 % 0 % 1027 hPa 0,0 l/m 4,0 km/h (1 Bft) 0 min
11.12.2013 20:29 21,9 C 2,4 C -4,3 C 99 % 0 % 1027 hPa 0,0 l/m 22,8 km/h (4 Bft) 0 min
11.12.2013 20:32 21,9 C 2,3 C -4,3 C 99 % 0 % 1027 hPa 0,0 l/m 10,2 km/h (2 Bft) 0 min
11.12.2013 20:35 21,9 C 2,3 C -4,3 C 99 % 0 % 1027 hPa 0,0 l/m 11,8 km/h (2 Bft) 0 min
11.12.2013 20:38 22,0 C 2,3 C -4,3 C 99 % 0 % 1027 hPa 0,0 l/m 11,3 km/h (2 Bft) 0 min
11.12.2013 20:41 22,0 C 2,3 C -4,3 C 99 % 0 % 1027 hPa 0,0 l/m 6,6 km/h (2 Bft) 0 min
11.12.2013 20:44 22,0 C 2,3 C -4,3 C 99 % 0 % 1027 hPa 0,0 l/m 5,2 km/h (1 Bft) 0 min
11.12.2013 20:47 22,0 C 2,3 C -4,3 C 99 % 0 % 1027 hPa 0,0 l/m 3,9 km/h (1 Bft) 0 min
11.12.2013 20:50 22,0 C 2,3 C -4,3 C 99 % 0 % 1027 hPa 0,0 l/m 4,3 km/h (1 Bft) 0 min
11.12.2013 20:53 22,0 C 2,3 C -4,3 C 99 % 0 % 1027 hPa 0,0 l/m 8,6 km/h (2 Bft) 0 min
11.12.2013 20:56 22,0 C 2,3 C -4,3 C 99 % 0 % 1027 hPa 0,0 l/m 7,3 km/h (2 Bft) 0 min
11.12.2013 20:59 22,0 C 2,3 C -4,3 C 99 % 0 % 1027 hPa 0,0 l/m 14,8 km/h (3 Bft) 0 min
11.12.2013 21:02 22,1 C 2,2 C -4,3 C 99 % 0 % 1027 hPa 0,0 l/m 12,9 km/h (3 Bft) 0 min
11.12.2013 21:05 22,1 C 2,2 C -4,3 C 99 % 0 % 1027 hPa 0,0 l/m 9,2 km/h (2 Bft) 0 min
11.12.2013 21:08 22,1 C 2,2 C -4,3 C 99 % 0 % 1027 hPa 0,0 l/m 10,8 km/h (2 Bft) 0 min
11.12.2013 21:11 22,1 C 2,2 C -4,3 C 99 % 0 % 1027 hPa 0,0 l/m 10,1 km/h (2 Bft) 0 min
11.12.2013 21:14 22,1 C 2,2 C -4,3 C 99 % 0 % 1027 hPa 0,0 l/m 10,1 km/h (2 Bft) 0 min
11.12.2013 21:17 22,1 C 2,2 C -4,3 C 99 % 0 % 1027 hPa 0,0 l/m 6,8 km/h (2 Bft) 0 min
11.12.2013 21:20 22,0 C 2,2 C -4,3 C 99 % 0 % 1027 hPa 0,0 l/m 7,0 km/h (2 Bft) 0 min
11.12.2013 21:23 22,0 C 2,2 C -4,3 C 99 % 0 % 1027 hPa 0,0 l/m 6,2 km/h (2 Bft) 0 min
11.12.2013 21:26 22,0 C 2,2 C -4,3 C 99 % 0 % 1027 hPa 0,0 l/m 4,8 km/h (1 Bft) 0 min
11.12.2013 21:29 22,0 C 2,1 C -4,3 C 99 % 0 % 1027 hPa 0,0 l/m 5,6 km/h (1 Bft) 0 min
11.12.2013 21:32 22,0 C 2,1 C -4,3 C 99 % 0 % 1027 hPa 0,0 l/m 4,9 km/h (1 Bft) 0 min
11.12.2013 21:35 22,0 C 2,1 C -4,3 C 99 % 0 % 1027 hPa 0,0 l/m 9,0 km/h (2 Bft) 0 min
11.12.2013 21:38 22,0 C 2,1 C -4,3 C 99 % 0 % 1027 hPa 0,0 l/m 6,3 km/h (2 Bft) 0 min
11.12.2013 21:41 22,0 C 2,1 C -4,3 C 99 % 0 % 1027 hPa 0,0 l/m 6,5 km/h (2 Bft) 0 min
11.12.2013 21:44 22,0 C 2,1 C -4,3 C 99 % 0 % 1027 hPa 0,0 l/m 5,0 km/h (1 Bft) 0 min
11.12.2013 21:47 22,0 C 2,1 C -4,3 C 99 % 0 % 1027 hPa 0,0 l/m 1,0 km/h (0 Bft) 0 min
11.12.2013 21:50 22,0 C 2,1 C -4,3 C 99 % 0 % 1027 hPa 0,0 l/m 7,0 km/h (2 Bft) 0 min
11.12.2013 21:53 22,0 C 2,1 C -4,3 C 99 % 0 % 1027 hPa 0,0 l/m 6,3 km/h (2 Bft) 0 min
11.12.2013 21:56 22,0 C 2,1 C -4,3 C 99 % 0 % 1027 hPa 0,0 l/m 2,1 km/h (1 Bft) 0 min
11.12.2013 21:59 22,0 C 2,1 C -4,3 C 99 % 0 % 1027 hPa 0,0 l/m 5,6 km/h (1 Bft) 0 min
11.12.2013 22:02 21,9 C 2,1 C -4,3 C 99 % 0 % 1027 hPa 0,0 l/m 3,3 km/h (1 Bft) 0 min
11.12.2013 22:05 21,9 C 2,1 C -4,3 C 99 % 0 % 1027 hPa 0,0 l/m 0,0 km/h (0 Bft) 0 min
11.12.2013 22:08 21,9 C 2,1 C -4,3 C 99 % 0 % 1027 hPa 0,0 l/m 8,9 km/h (2 Bft) 0 min
11.12.2013 22:11 21,9 C 2,1 C -4,3 C 99 % 0 % 1027 hPa 0,0 l/m 6,5 km/h (2 Bft) 0 min
11.12.2013 22:14 21,9 C 2,1 C -4,3 C 99 % 0 % 1027 hPa 0,0 l/m 7,3 km/h (2 Bft) 0 min
11.12.2013 22:17 25,9 C 2,1 C -4,3 C 99 % 0 % 1027 hPa 0,0 l/m 5,4 km/h (1 Bft) 0 min
11.12.2013 22:20 21,9 C 2,1 C -4,3 C 99 % 0 % 1027 hPa 0,0 l/m 4,6 km/h (1 Bft) 0 min
11.12.2013 22:23 21,9 C 2,1 C -4,3 C 99 % 0 % 1027 hPa 0,0 l/m 4,5 km/h (1 Bft) 0 min
11.12.2013 22:26 21,9 C 2,1 C -4,3 C 99 % 0 % 1027 hPa 0,0 l/m 4,5 km/h (1 Bft) 0 min
11.12.2013 22:29 21,8 C 2,1 C -4,3 C 99 % 0 % 1027 hPa 0,0 l/m 4,2 km/h (1 Bft) 0 min
11.12.2013 22:32 21,8 C 2,1 C -4,3 C 99 % 0 % 1027 hPa 0,0 l/m 4,5 km/h (1 Bft) 0 min
11.12.2013 22:35 21,8 C 2,1 C -4,3 C 99 % 0 % 1027 hPa 0,0 l/m 3,9 km/h (1 Bft) 0 min
11.12.2013 22:38 21,8 C 2,1 C -4,3 C 99 % 0 % 1027 hPa 0,0 l/m 3,9 km/h (1 Bft) 0 min
11.12.2013 22:41 21,8 C 2,1 C -4,3 C 99 % 0 % 1027 hPa 0,0 l/m 7,1 km/h (2 Bft) 0 min
11.12.2013 22:44 21,8 C 2,1 C -4,3 C 99 % 0 % 1027 hPa 0,0 l/m 9,0 km/h (2 Bft) 0 min
11.12.2013 22:47 21,8 C 2,1 C -4,3 C 99 % 0 % 1027 hPa 0,0 l/m 7,0 km/h (2 Bft) 0 min
11.12.2013 22:50 21,8 C 2,1 C -4,3 C 99 % 0 % 1027 hPa 0,0 l/m 3,4 km/h (1 Bft) 0 min
11.12.2013 22:53 21,8 C 2,1 C -4,3 C 99 % 0 % 1027 hPa 0,0 l/m 3,3 km/h (1 Bft) 0 min
11.12.2013 22:56 21,8 C 2,1 C -4,3 C 99 % 0 % 1027 hPa 0,0 l/m 3,4 km/h (1 Bft) 0 min
11.12.2013 22:59 21,7 C 2,1 C -4,3 C 99 % 0 % 1027 hPa 0,0 l/m 2,8 km/h (1 Bft) 0 min
11.12.2013 23:02 21,7 C 2,1 C -4,3 C 99 % 0 % 1027 hPa 0,0 l/m 2,7 km/h (1 Bft) 0 min
11.12.2013 23:05 21,7 C 2,1 C -4,3 C 99 % 0 % 1027 hPa 0,0 l/m 2,7 km/h (1 Bft) 0 min
11.12.2013 23:08 21,7 C 2,1 C -4,3 C 99 % 0 % 1027 hPa 0,0 l/m 1,9 km/h (1 Bft) 0 min
11.12.2013 23:11 21,7 C 2,1 C -4,3 C 99 % 0 % 1027 hPa 0,0 l/m 6,7 km/h (2 Bft) 0 min
11.12.2013 23:14 21,7 C 2,1 C -4,3 C 99 % 0 % 1027 hPa 0,0 l/m 8,9 km/h (2 Bft) 0 min
11.12.2013 23:17 21,7 C 2,1 C -4,3 C 99 % 0 % 1027 hPa 0,0 l/m 8,8 km/h (2 Bft) 0 min
11.12.2013 23:20 21,7 C 2,1 C -4,3 C 99 % 0 % 1027 hPa 0,0 l/m 1,3 km/h (1 Bft) 0 min
11.12.2013 23:23 21,6 C 2,1 C -4,3 C 99 % 0 % 1027 hPa 0,0 l/m 5,5 km/h (1 Bft) 0 min
11.12.2013 23:26 21,6 C 2,1 C -4,3 C 99 % 0 % 1027 hPa 0,0 l/m 8,0 km/h (2 Bft) 0 min
11.12.2013 23:29 21,6 C 2,1 C -4,3 C 99 % 0 % 1027 hPa 0,0 l/m 9,5 km/h (2 Bft) 0 min
11.12.2013 23:32 21,6 C 2,1 C -4,3 C 99 % 0 % 1027 hPa 0,0 l/m 12,3 km/h (3 Bft) 0 min
11.12.2013 23:35 21,6 C 2,1 C -4,3 C 99 % 0 % 1027 hPa 0,0 l/m 12,3 km/h (3 Bft) 0 min
11.12.2013 23:38 21,6 C 2,1 C -4,3 C 99 % 0 % 1027 hPa 0,0 l/m 7,8 km/h (2 Bft) 0 min
11.12.2013 23:41 21,6 C 2,1 C -4,3 C 99 % 0 % 1027 hPa 0,0 l/m 9,0 km/h (2 Bft) 0 min
11.12.2013 23:44 21,6 C 2,1 C -4,3 C 99 % 0 % 1027 hPa 0,0 l/m 10,1 km/h (2 Bft) 0 min
11.12.2013 23:47 21,6 C 2,1 C -4,3 C 99 % 0 % 1027 hPa 0,0 l/m 5,4 km/h (1 Bft) 0 min
11.12.2013 23:50 21,6 C 2,1 C -4,3 C 99 % 0 % 1027 hPa 0,0 l/m 3,6 km/h (1 Bft) 0 min
11.12.2013 23:53 21,6 C 2,1 C -4,3 C 99 % 0 % 1027 hPa 0,0 l/m 3,7 km/h (1 Bft) 0 min
11.12.2013 23:56 21,6 C 2,1 C -4,3 C 99 % 0 % 1027 hPa 0,0 l/m 3,6 km/h (1 Bft) 0 min
11.12.2013 23:59 21,6 C 2,1 C -4,3 C 99 % 0 % 1027 hPa 0,0 l/m 7,4 km/h (2 Bft) 0 min
_ Min-Zeit 03:32 21:29 00:02 00:02 - 14:35 - 01:56 -
Minimum _ 21,1 C 2,1 C -4,3 C 97 % - 1027 hPa - 0,0 km/h (0 Bft) -
_ Max-Zeit 22:17 00:02 00:02 02:35 12:05 04:11 00:02 20:29 00:02
Maximum _ 25,9 C 5,3 C -4,3 C 99 % 10 % 1029 hPa 0,0 l/m 22,8 km/h
O (4 Bft)
0 min
Durchschnitt _ 21,6 C 3,4 C -4,3 C 99 % #0 min. 1028 hPa #0,0 l/m 6,3 km/h (2 Bft) #0 min.